Regional Weather Roundup
Issued by NWS

Home | Current Version | Previous Version | Graphics & Text | Print | Product List | Glossary On
Versions: 1 2 3 4 5 6 7 8 9 10 11 12 13 14 15 16 17 18 19 20 21 22 23 24 25 26 27 28 29 30 31 32 33 34 35 36 37 38 39 40 41 42 43 44 45 46 47 48 49 50
000
ASUS43 KDMX 280401
RWRIA

WEATHER ROUNDUP FOR IOWA
NATIONAL WEATHER SERVICE DES MOINES IA
1100 PM CDT TUE JUN 27 2017

NOTE: "FAIR" INDICATES FEW OR NO CLOUDS BELOW 12,000 FEET WITH NO
SIGNIFICANT WEATHER AND/OR OBSTRUCTIONS TO VISIBILITY.

* - THESE STATIONS ARE NOT NWS STATIONS...THUS NOT UNDER NWS
QUALITY CONTROL.  THEY ALSO DO NOT REPORT WEATHER SUCH
AS PRECIPITATION OR FOG.

IAZ001>003-012>014-020>022-031>034-043>046-280500-
   NORTHWEST IOWA

CITY           SKY/WX    TMP DP  RH WIND       PRES   REMARKS
CARROLL *      CLOUDY    72  61  68 S17G23    29.83R
CHEROKEE *     MOCLDY    73  61  67 S17G25    29.75F
DENISON *      CLOUDY    73  63  68 S21G28    29.81S
LE MARS *      CLOUDY    73  63  68 SE15G24   29.71F
ORANGE CITY *  CLOUDY    72  64  78 SE16      29.72F
SHELDON *      CLOUDY    72  61  68 SE22G30   29.71F
SIOUX CITY     CLOUDY    75  65  70 S20G32    29.71F
SPENCER        CLOUDY    72  59  63 S17       29.79S
STORM LAKE *   CLOUDY    72  61  68 S17G25    29.80S
$$

IAZ055>058-069>071-079>083-090>094-280500-
   SOUTHWEST IOWA

CITY           SKY/WX    TMP DP  RH WIND       PRES   REMARKS
ATLANTIC *     CLOUDY    73  63  68 S15G21    29.83F
AUDUBON *      MOCLDY    72  63  73 S14G20    29.85S
CLARINDA *       N/A     73  66  78 S9        29.86F
COUNCIL BLFS * CLOUDY    73  68  83 SE15      29.80S
CRESTON *      MOCLDY    70  61  73 S14G22    29.89S
HARLAN  *      CLOUDY    73  64  73 S14G24    29.85S
LAMONI         PTCLDY    71  62  73 S12G18    29.90S
RED OAK *      CLOUDY    73  64  73 SE12      29.83S
SHENANDOAH *   CLOUDY    73  66  78 SE8G20    29.83S
$$

IAZ047>049-059>061-072>074-084-280500-
   CENTRAL IOWA

CITY           SKY/WX    TMP DP  RH WIND       PRES   REMARKS
AMES           PTCLDY    69  57  65 S12       29.87F
ANKENY *       PTCLDY    72  55  56 SE12      29.88F
BOONE *        MOCLDY    72  57  60 SE10      29.86S
CHARITON *     PTCLDY    70  57  64 SE9       29.90S
DES MOINES     MOCLDY    72  56  57 SE10      29.88F
GRINNELL*      MOCLDY    67  51  56 SE9       29.93F
KNOXVILLE *    CLOUDY    70  54  56 SE10      29.90S
MARSHALLTOWN   PTCLDY    67  52  58 SE13      29.89F
NEWTON *       CLOUDY    68  52  56 S14       29.90F
PELLA *        MOCLDY    71  52  51 SE10G17   29.93R
PERRY *          N/A     72  57  59 SE12      29.86R
$$

IAZ004>006-015-016-023>025-035-036-280500-
   NORTH CENTRAL IOWA

CITY           SKY/WX    TMP DP  RH WIND       PRES   REMARKS
ALGONA *       CLOUDY    70  54  56 SE15      29.83F
CLARION *        N/A     70  54  56 SE13G21   29.86S
ESTHERVILLE    CLOUDY    67  55  65 SE13      29.79S
FORT DODGE *   CLOUDY    72  54  53 SE7       29.87R
MASON CITY     PTCLDY    64  49  57 SE10      29.89F
FOREST CITY *    N/A     64  43  45 S12       29.87R
WEBSTER CITY * CLOUDY    70  55  60 MISG      29.84R
IOWA FALLS *     N/A     67  53  59 SE10      29.90R
$$

IAZ007>011-017>019-026>030-037>042-050>054-066-280500-
   NORTHEAST IOWA

CITY           SKY/WX    TMP DP  RH WIND       PRES   REMARKS
CEDAR RAPIDS   CLEAR     64  51  62 S6        29.95R
CHARLES CITY * PTCLDY    63  46  55 SE9       29.92S
CLINTON *      CLEAR     62  49  62 SE10      30.00R
DECORAH *      CLOUDY    61  48  63 S7        29.94S
DUBUQUE        CLEAR     60  47  61 S10       29.98R
MONTICELLO *   CLEAR     59  48  67 SE6       29.97R
OELWEIN *      PTCLDY    59  48  67 SE9       29.95R
WATERLOO       CLEAR     65  48  54 SE12      29.90S
$$

IAZ064-065-067-068-078-280500-
   EAST CENTRAL IOWA

CITY           SKY/WX    TMP DP  RH WIND       PRES   REMARKS
IOWA CITY      CLEAR     63  51  65 SE6       29.97R
MT. PLEASANT * PTCLDY    64  49  59 SE7       29.97S
MUSCATINE *    PTCLDY    61  54  77 CALM      29.98R
QUAD CITIES    CLEAR     62  50  64 S7        29.99R
$$

IAZ062-063-075>077-085>089-095>099-280500-
   SOUTHEAST IOWA

CITY           SKY/WX    TMP DP  RH WIND       PRES   REMARKS
BURLINGTON     CLEAR     67  54  63 S9        29.98S
FAIRFIELD *    CLEAR     68  52  56 SE12      29.94F
FORT MADISON * CLEAR     68  52  56 S10       29.99S
KEOKUK *       CLEAR     70  52  52 SE9G15    29.97S
OSKALOOSA *    MOCLDY    65  52  64 SE6       29.94R
OTTUMWA        PTCLDY    69  51  52 SE9       29.93S
WASHINGTON *   CLOUDY    64  52  63 S9        29.97S
$$

ABBREVIATIONS USED IN REMARKS
   TC - TEMPERATURES IN CELSIUS
  WCI - WIND CHILL INDEX
   HX - HEAT INDEX
  VSB - VISIBILITY
$$




USA.gov is the U.S. government's official web portal to all federal, state and local government web resources and services.